Content
SEND FEEDBACK

Daily
Averages
Monthly
Summary
United States of America

ANN ARBOR, MICHIGAN


Home > North America > United States > Michigan
Elevation: 759 feet     Latitude: 42 17N     Longitude: 083 43W

WEATHER
 
SELECT A DAY
Number of Records: 206,924;   Date Range: 1/1/95 - 10/18/14
 
SHARE

PRINT THIS DATA

[ ← Previous Day ]
WEATHER ALMANAC - APRIL 28, 2013
[ Next Day → ]
[ °C ]   °F
Weather ElementAverageHighLow
Temperature52.8 °F54 °F (4:53 pm)50 °F (6:53 am)
Dewpoint49.4 °F53.6 °F (5:23 pm)34 °F (2:53 am)
Humidity89.6 %100 % (2:15 pm)50 % (2:53 am)
Barometer29.91 in30.08 in (1:53 am)29.84 in (7:39 pm)
Wind Speed5.3 mph10.4 mph (12:53 pm)
Weather ElementAverage
Visibility3.8 mi
Wind DirectionE (89 °)

Weather ElementTotal
Precipitation0.56 in
Heating Degree Days13 (Base 65)
Growing Degree Days2 (Base 50)
Averaged from 51 records on April 28, 2013
WEATHER CONDITIONS BREAKOUT
WIND DIRECTION BREAKOUT
WEATHER BY HOUR - APRIL 28, 2013
[ °C ]   °F
Local TimeTemperatureDewpointHumidityBarometerVisibilityWind DirectionWind SpeedGust SpeedPrecipitationEventsConditions
1:53 AM51.1 °F35.1 °F54 %30.08 in10.0 miCalmOvercast
2:53 AM52.0 °F34.0 °F50 %30.04 in10.0 miENE (60°)3.5 mphOvercast
3:53 AM51.1 °F34.0 °F52 %30.02 in10.0 miEast (80°)4.6 mphOvercast
4:53 AM51.1 °F35.1 °F54 %30.01 in10.0 miCalmOvercast
5:53 AM51.1 °F36.0 °F56 %30.01 in10.0 miENE (70°)3.5 mphOvercast
6:53 AM50.0 °F37.0 °F61 %29.99 in10.0 miNE (50°)3.5 mphOvercast
7:53 AM50.0 °F39.0 °F66 %29.99 in10.0 miEast (90°)4.6 mphOvercast
8:53 AM51.1 °F41.0 °F68 %29.99 in10.0 miEast (100°)5.8 mphOvercast
9:53 AM53.1 °F46.9 °F80 %29.98 in8.0 miSE (130°)8.1 mph0.01 inRainLight Rain
10:09 AM51.8 °F48.2 °F88 %29.97 in5.0 miSE (130°)9.2 mph0.01 inRainLight Rain
10:49 AM51.8 °F48.2 °F88 %29.96 in5.0 miESE (110°)8.1 mph0.05 inRainLight Rain
10:53 AM52.0 °F48.9 °F89 %29.96 in5.0 miESE (110°)5.8 mph0.06 inRainLight Rain
11:09 AM51.8 °F50.0 °F94 %29.95 in4.0 miEast (100°)6.9 mph0.01 inRainLight Rain
11:23 AM51.8 °F50.0 °F94 %29.95 in5.0 miESE (110°)8.1 mph0.03 inRainLight Rain
11:41 AM51.8 °F50.0 °F94 %29.94 in5.0 miESE (120°)8.1 mph0.04 inRainLight Rain
11:53 AM52.0 °F50.0 °F93 %29.94 in5.0 miESE (110°)6.9 mph0.05 inRainLight Rain
12:53 PM52.0 °F50.0 °F93 %29.93 in4.0 miSE (130°)10.4 mph0.00 inOvercast
1:02 PM51.8 °F50.0 °F94 %29.92 in2.5 miESE (120°)9.2 mphOvercast
1:16 PM51.8 °F50.0 °F94 %29.91 in3.0 miSE (130°)9.2 mphOvercast
1:53 PM52.0 °F51.1 °F97 %29.91 in4.0 miESE (120°)8.1 mph0.00 inOvercast
2:15 PM51.8 °F51.8 °F100 %29.90 in2.0 miEast (100°)6.9 mph0.01 inOvercast
2:28 PM51.8 °F51.8 °F100 %29.90 in1.5 miEast (100°)5.8 mph0.01 inRainLight Rain
2:40 PM53.6 °F51.8 °F94 %29.90 in1.2 miEast (100°)4.6 mph0.02 inRainLight Rain
2:53 PM53.1 °F51.1 °F93 %29.90 in1.2 miEast (100°)5.8 mph0.03 inRainLight Rain
3:08 PM53.6 °F51.8 °F94 %29.89 in1.5 miEast (100°)6.9 mph0.00 inRainLight Rain
3:20 PM53.6 °F51.8 °F94 %29.89 in2.0 miEast (100°)6.9 mph0.01 inOvercast
3:46 PM53.6 °F51.8 °F94 %29.88 in4.0 miEast (100°)6.9 mph0.01 inRainLight Rain
3:53 PM53.1 °F52.0 °F96 %29.88 in3.0 miEast (100°)5.8 mph0.01 inRainLight Rain
4:00 PM53.6 °F51.8 °F94 %29.87 in2.5 miESE (110°)5.8 mph0.01 inRainLight Rain
4:18 PM53.6 °F51.8 °F94 %29.87 in3.0 miESE (110°)5.8 mph0.03 inRainLight Rain
4:36 PM53.6 °F51.8 °F94 %29.86 in2.0 miEast (100°)5.8 mph0.04 inRainLight Rain
4:48 PM53.6 °F51.8 °F94 %29.86 in3.0 miESE (110°)6.9 mph0.05 inRainLight Rain
4:53 PM54.0 °F52.0 °F93 %29.86 in2.5 miEast (100°)6.9 mph0.05 inRainLight Rain
5:23 PM53.6 °F53.6 °F100 %29.86 in3.0 miEast (100°)4.6 mph0.00 inOvercast
5:33 PM53.6 °F53.6 °F100 %29.85 in2.5 miEast (90°)3.5 mph0.00 inOvercast
5:48 PM53.6 °F53.6 °F100 %29.85 in1.8 miEast (90°)5.8 mph0.00 inOvercast
5:53 PM54.0 °F53.1 °F97 %29.86 in1.5 miEast (100°)5.8 mph0.00 inOvercast
6:04 PM53.6 °F53.6 °F100 %29.85 in1.2 miEast (90°)3.5 mph0.00 inRainLight Rain
6:10 PM53.6 °F53.6 °F100 %29.85 in1.5 miEast (100°)4.6 mph0.00 inRainLight Rain
6:44 PM53.6 °F53.6 °F100 %29.85 in2.0 miEast (90°)4.6 mph0.00 inOvercast
6:53 PM54.0 °F53.1 °F97 %29.86 in2.0 miEast (90°)4.6 mph0.00 inOvercast
7:06 PM53.6 °F53.6 °F100 %29.85 in1.5 miEast (100°)4.6 mphOvercast
7:39 PM53.6 °F53.6 °F100 %29.84 in1.2 miEast (90°)3.5 mph0.01 inOvercast
7:53 PM54.0 °F53.1 °F97 %29.84 in1.2 miESE (110°)4.6 mph0.01 inOvercast
8:40 PM53.6 °F53.6 °F100 %29.84 in2.0 miEast (90°)4.6 mphOvercast
8:53 PM54.0 °F53.1 °F97 %29.85 in2.5 miEast (90°)4.6 mphOvercast
9:26 PM53.6 °F53.6 °F100 %29.85 in1.5 miCalmOvercast
9:35 PM53.6 °F53.6 °F100 %29.85 in1.2 miESE (110°)4.6 mphOvercast
9:53 PM54.0 °F53.1 °F97 %29.86 in0.8 miCalmOvercast
10:53 PM54.0 °F53.1 °F97 %29.85 in0.2 miCalmFogFog
11:53 PM54.0 °F53.1 °F97 %29.85 in0.2 miCalmFogFog
Hourly data recorded from KARB, located miles away from Ann Arbor, Michigan







STORIES FROM OUR PARTNERS